Bingham Lake, MN

7:44 PM CST on December 05, 2016 (GMT -0600)
Windom Municipal

Weather History for KMWM - March, 2013

Change the Weather History Date:

Monday, March 4, 2013

  Actual Average Record
Temperature  
Mean Temperature 26 °F -  
Max Temperature 28 °F 36 °F 82 °F (1999)
Min Temperature 24 °F 17 °F -11 °F (1960)
Degree Days  
Heating Degree Days 39    
Moisture  
Dew Point 26 °F    
Average Humidity 95    
Maximum Humidity 100    
Minimum Humidity 86    
Precipitation  
Precipitation 0.02 in - - ()
Sea Level Pressure  
Sea Level Pressure 29.84 in    
Wind  
Wind Speed 14 mph (SE)    
Max Wind Speed 21 mph    
Max Gust Speed 28 mph    
Visibility 3 miles    
Events Snow    
Averages and records for this station are not official NWS values.
T = Trace of Precipitation, MM = Missing Value Source: NWS Daily Summary

Daily Weather History Graph

Daily Weather History Graph

Search for Another Location

Airport or City:

Trip Planner

Search our weather history database for the weather conditions in past years. The results will help you decide how hot, cold, wet, or windy it might be!

Date:

Astronomy

Mar. 04, 2013 Rise Set
Actual Time 6:51 AM CST 6:13 PM CST
Civil Twilight 6:22 AM CST 6:42 PM CST
Nautical Twilight 5:49 AM CST 7:15 PM CST
Astronomical Twilight 5:16 AM CST 7:48 PM CST
Moon 1:10 AM CST (3/4) 10:47 AM CST (3/4)
Length of Visible Light 12h 19m
Length of Day
11h 21m
Waning Gibbous, 52% of the Moon is Illuminated
Mar 4
Waning Gibbous
Mar 4
Last Quarter
Mar 11
New
Mar 19
First Quarter
Mar 27
Full

Hourly Weather History & Observations

Time (CST) Temp. Windchill Dew Point Humidity Pressure Visibility Wind Dir Wind Speed Gust Speed Precip Events Conditions
12:12 AM 24.8 °F 10.7 °F 21.2 °F 86% 29.81 in 1.2 mi ESE 19.6 mph 27.6 mph N/A Snow Light Snow
12:32 AM 24.8 °F 11.1 °F 21.2 °F 86% 29.80 in 1.5 mi ESE 18.4 mph 23.0 mph N/A Snow Light Snow
12:53 AM 24.8 °F 11.1 °F 21.2 °F 86% 29.79 in 4.0 mi ESE 18.4 mph 24.2 mph 0.01 in Snow Light Snow
1:12 AM 24.8 °F 10.3 °F 23.0 °F 93% 29.78 in 5.0 mi ESE 20.7 mph 27.6 mph N/A   Overcast
2:12 AM 24.8 °F 11.1 °F 23.0 °F 93% 29.79 in 2.5 mi ESE 18.4 mph 23.0 mph 0.01 in Snow Light Snow
2:32 AM 24.8 °F 11.5 °F 23.0 °F 93% 29.78 in 2.0 mi ESE 17.3 mph 24.2 mph 0.01 in Snow Light Snow
2:53 AM 24.8 °F 12.9 °F 23.0 °F 93% 29.78 in 1.8 mi ESE 13.8 mph 23.0 mph 0.01 in Snow Light Snow
3:32 AM 24.8 °F 11.5 °F 23.0 °F 93% 29.76 in 10.0 mi ESE 17.3 mph 24.2 mph N/A   Overcast
3:53 AM 24.8 °F 10.7 °F 23.0 °F 93% 29.75 in 10.0 mi ESE 19.6 mph 23.0 mph N/A   Overcast
4:12 AM 24.8 °F 10.3 °F 21.2 °F 86% 29.75 in 10.0 mi ESE 20.7 mph 25.3 mph N/A   Overcast
4:32 AM 24.8 °F 11.9 °F 23.0 °F 93% 29.77 in 10.0 mi ESE 16.1 mph 21.9 mph N/A   Overcast
5:12 AM 24.8 °F 11.9 °F 23.0 °F 93% 29.78 in 10.0 mi ESE 16.1 mph 20.7 mph N/A   Overcast
5:32 AM 24.8 °F 11.9 °F 23.0 °F 93% 29.78 in 7.0 mi ESE 16.1 mph 20.7 mph N/A   Overcast
5:53 AM 24.8 °F 12.4 °F 24.8 °F 100% 29.79 in 7.0 mi SE 15.0 mph - N/A   Overcast
6:12 AM 24.8 °F 12.4 °F 24.8 °F 100% 29.79 in 7.0 mi SE 15.0 mph 20.7 mph N/A   Overcast
6:32 AM 24.8 °F 14.0 °F 24.8 °F 100% 29.80 in 7.0 mi SE 11.5 mph 18.4 mph N/A   Overcast
6:53 AM 26.6 °F 16.2 °F 24.8 °F 93% 29.80 in 7.0 mi ESE 11.5 mph 20.7 mph N/A   Overcast
7:12 AM 24.8 °F 15.3 °F 24.8 °F 100% 29.80 in 7.0 mi ESE 9.2 mph 17.3 mph N/A   Overcast
7:33 AM 24.8 °F 12.4 °F 23.0 °F 93% 29.79 in 5.0 mi ESE 15.0 mph - N/A   Overcast
7:53 AM 24.8 °F 11.5 °F 23.0 °F 93% 29.80 in 4.0 mi ESE 17.3 mph 24.2 mph N/A   Overcast
8:12 AM 24.8 °F 13.4 °F 23.0 °F 93% 29.80 in 4.0 mi ESE 12.7 mph 18.4 mph N/A   Overcast
8:33 AM 24.8 °F 11.5 °F 24.8 °F 100% 29.80 in 3.0 mi ESE 17.3 mph - N/A   Overcast
8:53 AM 26.6 °F 15.2 °F 24.8 °F 93% 29.81 in 2.5 mi ESE 13.8 mph - N/A   Overcast
9:12 AM 26.6 °F 15.2 °F 24.8 °F 93% 29.81 in 2.0 mi ESE 13.8 mph - N/A   Overcast
9:33 AM 26.6 °F 14.7 °F 24.8 °F 93% 29.81 in 1.5 mi ESE 15.0 mph 18.4 mph N/A   Overcast
9:53 AM 26.6 °F 15.2 °F 24.8 °F 93% 29.81 in 1.5 mi ESE 13.8 mph - N/A   Overcast
10:12 AM 26.6 °F 15.7 °F 24.8 °F 93% 29.81 in 2.0 mi ESE 12.7 mph - N/A   Overcast
10:33 AM 26.6 °F 16.8 °F 24.8 °F 93% 29.82 in 2.0 mi ESE 10.4 mph - N/A   Overcast
10:53 AM 26.6 °F 15.2 °F 24.8 °F 93% 29.82 in 2.0 mi SE 13.8 mph 18.4 mph N/A   Overcast
11:12 AM 26.6 °F 16.2 °F 24.8 °F 93% 29.82 in 1.5 mi SE 11.5 mph - N/A   Overcast
11:33 AM 26.6 °F 15.7 °F 24.8 °F 93% 29.83 in 2.0 mi SE 12.7 mph - N/A   Overcast
11:53 AM 26.6 °F 15.2 °F 26.6 °F 100% 29.83 in 2.0 mi ESE 13.8 mph - N/A   Overcast
12:12 PM 26.6 °F 16.2 °F 26.6 °F 100% 29.83 in 2.0 mi ESE 11.5 mph 17.3 mph N/A   Overcast
12:33 PM 26.6 °F 16.8 °F 26.6 °F 100% 29.84 in 2.0 mi SE 10.4 mph 16.1 mph N/A   Overcast
12:52 PM 26.6 °F 16.2 °F 26.6 °F 100% 29.83 in 2.0 mi ESE 11.5 mph - N/A   Overcast
1:12 PM 28.4 °F 19.7 °F 26.6 °F 93% 29.84 in 1.8 mi SE 9.2 mph - N/A   Overcast
1:33 PM 28.4 °F 18.5 °F 26.6 °F 93% 29.82 in 1.8 mi SE 11.5 mph - N/A   Overcast
1:52 PM 28.4 °F 19.1 °F 26.6 °F 93% 29.84 in 1.2 mi SSE 10.4 mph - N/A   Overcast
2:12 PM 28.4 °F 19.1 °F 26.6 °F 93% 29.84 in 1.2 mi SE 10.4 mph - N/A   Overcast
2:33 PM 26.6 °F 17.5 °F 26.6 °F 100% 29.83 in 1.2 mi SE 9.2 mph - N/A   Overcast
2:52 PM 26.6 °F 17.5 °F 26.6 °F 100% 29.84 in 1.0 mi SE 9.2 mph - N/A   Overcast
3:12 PM 28.4 °F 21.2 °F 26.6 °F 93% 29.84 in 1.2 mi SE 6.9 mph - N/A   Overcast
3:33 PM 28.4 °F 22.2 °F 26.6 °F 93% 29.85 in 1.8 mi SE 5.8 mph - N/A   Overcast
3:52 PM 28.4 °F 19.7 °F 26.6 °F 93% 29.85 in 2.5 mi ESE 9.2 mph - N/A   Overcast
4:12 PM 28.4 °F 19.7 °F 26.6 °F 93% 29.85 in 1.5 mi ESE 9.2 mph - N/A Snow Light Snow
4:33 PM 28.4 °F 22.2 °F 26.6 °F 93% 29.85 in 1.0 mi SE 5.8 mph - N/A Snow Light Snow
4:52 PM 28.4 °F 19.1 °F 26.6 °F 93% 29.84 in 1.8 mi ESE 10.4 mph - N/A Snow Light Snow
5:12 PM 28.4 °F 20.4 °F 26.6 °F 93% 29.86 in 1.2 mi SE 8.1 mph - N/A   Overcast
5:33 PM 28.4 °F 21.2 °F 26.6 °F 93% 29.87 in 1.2 mi SE 6.9 mph - N/A   Overcast
5:52 PM 28.4 °F 21.2 °F 26.6 °F 93% 29.88 in 1.0 mi SE 6.9 mph - N/A Snow Light Snow
6:12 PM 28.4 °F 23.3 °F 26.6 °F 93% 29.90 in 2.5 mi SE 4.6 mph - N/A   Overcast
6:32 PM 28.4 °F 21.2 °F 26.6 °F 93% 29.91 in 2.0 mi South 6.9 mph - N/A   Overcast
6:52 PM 28.4 °F 23.3 °F 26.6 °F 93% 29.93 in 1.8 mi South 4.6 mph - N/A   Overcast
7:13 PM 28.4 °F 24.6 °F 26.6 °F 93% 29.93 in 1.5 mi SSE 3.5 mph - N/A   Overcast
7:32 PM 28.4 °F 23.3 °F 28.4 °F 100% 29.93 in 1.5 mi SSE 4.6 mph - N/A   Overcast
7:52 PM 28.4 °F 24.6 °F 28.4 °F 100% 29.94 in 2.0 mi South 3.5 mph - N/A   Overcast
8:12 PM 28.4 °F 23.3 °F 26.6 °F 93% 29.93 in 2.0 mi SSE 4.6 mph - N/A   Overcast
8:32 PM 28.4 °F 22.2 °F 28.4 °F 100% 29.94 in 2.0 mi South 5.8 mph - N/A   Overcast
8:53 PM 28.4 °F 23.3 °F 28.4 °F 100% 29.95 in 2.5 mi South 4.6 mph - N/A   Overcast
9:12 PM 28.4 °F 23.3 °F 28.4 °F 100% 29.94 in 3.0 mi South 4.6 mph - N/A   Overcast
9:32 PM 28.4 °F 24.6 °F 28.4 °F 100% 29.94 in 2.5 mi South 3.5 mph - N/A   Overcast
9:53 PM 28.4 °F - 28.4 °F 100% 29.93 in 2.5 mi Calm Calm - N/A   Overcast
10:12 PM 28.4 °F 23.3 °F 28.4 °F 100% 29.94 in 2.5 mi South 4.6 mph - N/A   Overcast
10:53 PM 28.4 °F 22.2 °F 28.4 °F 100% 29.92 in 2.0 mi SSW 5.8 mph - N/A   Overcast
11:12 PM 28.4 °F 23.3 °F 26.6 °F 93% 29.92 in 2.0 mi SW 4.6 mph - N/A   Overcast
11:32 PM 28.4 °F 22.2 °F 28.4 °F 100% 29.91 in 2.5 mi SW 5.8 mph - N/A   Overcast
11:53 PM 28.4 °F 24.6 °F 28.4 °F 100% 29.91 in 2.5 mi SSW 3.5 mph - N/A   Overcast